Terminal Aerodrome Forecast
Issued by NWS Columbia, SC

Home | Current Version | Previous Version | Text Only | Print | Product List | Glossary On
Versions: 1 2 3 4 5 6 7 8 9 10 11 12 13 14 15 16 17 18 19 20 21 22 23 24 25 26 27 28 29 30 31 32 33 34 35 36 37 38 39 40 41 42 43 44 45 46 47 48 49 50
000
FTUS42 KCAE 192041 AAA
TAFAGS
TAF AMD
KAGS 192041Z 1921/2018 VRB03KT P6SM BKN200
     FM200400 13004KT P6SM SCT040 OVC080
     FM200900 17004KT 4SM BR OVC010
      TEMPO 2009/2012 2SM -RA BR OVC007
     FM201200 20005KT 4SM BR OVC007
      TEMPO 2012/2015 2SM BR=

USA.gov is the U.S. government's official web portal to all federal, state and local government web resources and services.